| time (UTC) | temp F | wind direction | speed MPH | gust MPH | rain 1hr in | rain 24hr in | rain mn in | humidity % | barometer mb |
| 20260903124534 | 0 | 0 | 0.0 | 0.0 | 0.00 | 0.35 | 0.00 | 100 | |
| 20260903123034 | 0 | 0 | 0.0 | 0.0 | 0.00 | 0.35 | 0.00 | 100 | |
| 20260903121534 | 0 | 0 | 0.0 | 0.0 | 0.00 | 0.35 | 0.00 | 100 | |
| 20260903120035 | 0 | 0 | 0.0 | 0.0 | 0.00 | 0.35 | 0.00 | 100 | |
| 20260903114533 | 0 | 0 | 0.0 | 0.0 | 0.00 | 0.35 | 0.00 | 100 | |
| 20260903113035 | 0 | 0 | 0.0 | 0.0 | 0.00 | 0.35 | 0.00 | 100 | |
| 20260903111535 | 0 | 0 | 0.0 | 0.0 | 0.00 | 0.35 | 0.00 | 100 | |
| 20260903110034 | 0 | 0 | 0.0 | 0.0 | 0.00 | 0.35 | 0.00 | 100 | |
| 20260903104610 | 0 | 0 | 0.0 | 0.0 | 0.00 | 0.35 | 0.00 | 100 | |
| 20260903103111 | 48 | 67 | 0.0 | 0.0 | 0.00 | 0.35 | 0.00 | 96 | 1013.1 |
| 20260903100153 | 48 | 67 | 0.0 | 22.0 | 0.00 | 0.35 | 0.00 | 96 | 1013.1 |
| 20260903094533 | 0 | 0 | 0.0 | 0.0 | 0.00 | 0.35 | 0.00 | 100 | |
| 20260903091535 | 0 | 0 | 0.0 | 0.0 | 0.00 | 0.35 | 0.00 | 100 | |
| 20260903090033 | 48 | 67 | 0.0 | 0.0 | 0.00 | 0.35 | 0.00 | 96 | 1013.1 |
| 20260903084533 | 0 | 0 | 0.0 | 0.0 | 0.00 | 0.35 | 0.00 | 100 | |
| 20260903083036 | 0 | 0 | 0.0 | 0.0 | 0.00 | 0.35 | 0.00 | 100 | |
| 20260903074537 | 0 | 0 | 0.0 | 0.0 | 0.00 | 0.35 | 0.00 | 100 | |
| 20260903071530 | 0 | 0 | 0.0 | 0.0 | 0.00 | 0.35 | 0.00 | 100 | |
| 20260903070035 | 0 | 0 | 0.0 | 0.0 | 0.00 | 0.35 | 0.00 | 100 | |
| 20260903064536 | 0 | 0 | 0.0 | 0.0 | 0.00 | 0.35 | 0.00 | 100 | |
| 20260903063031 | 0 | 0 | 0.0 | 0.0 | 0.00 | 0.35 | 0.00 | 100 | |
| 20260903061606 | 0 | 0 | 0.0 | 0.0 | 0.00 | 0.35 | 0.00 | 100 | |
| 20260903060030 | 0 | 0 | 0.0 | 0.0 | 0.00 | 0.35 | 0.00 | 100 | |
| 20260903054536 | 52 | 157 | 6.0 | 22.0 | 0.00 | 0.35 | 0.35 | 95 | 1012.8 |
| 20260903053034 | 0 | 0 | 0.0 | 0.0 | 0.09 | 0.35 | 0.00 | 100 | |
| 20260903051537 | 0 | 0 | 0.0 | 0.0 | 0.09 | 0.35 | 0.00 | 100 | |
| 20260903050036 | 52 | 142 | 5.0 | 6.0 | 0.09 | 0.35 | 0.35 | 95 | 1012.8 |
| 20260903044536 | 54 | 153 | 4.0 | 5.0 | 0.09 | 0.35 | 0.26 | 95 | 1012.0 |
| 20260903041531 | 0 | 0 | 0.0 | 0.0 | 0.00 | 0.26 | 0.00 | 100 | |
| 20260903040109 | 0 | 0 | 0.0 | 0.0 | 0.00 | 0.26 | 0.00 | 100 | |
| 20260903034531 | 56 | 337 | 2.0 | 2.0 | 0.00 | 0.26 | 0.26 | 96 | 1011.2 |
| 20260903033033 | 0 | 0 | 0.0 | 0.0 | 0.00 | 0.26 | 0.00 | 100 | |
| 20260903031651 | 0 | 0 | 0.0 | 0.0 | 0.01 | 0.26 | 0.00 | 100 | |
| 20260903030036 | 0 | 0 | 0.0 | 0.0 | 0.01 | 0.26 | 0.00 | 100 | |
| 20260903021528 | 0 | 0 | 0.0 | 0.0 | 0.00 | 0.25 | 0.00 | 100 | |
| 20260903020031 | 0 | 0 | 0.0 | 0.0 | 0.01 | 0.25 | 0.00 | 100 | |
| 20260903014536 | 0 | 0 | 0.0 | 0.0 | 0.02 | 0.25 | 0.00 | 100 | |
| 20260903013036 | 0 | 0 | 0.0 | 0.0 | 0.06 | 0.25 | 0.00 | 100 | |
| 20260903011605 | 56 | 305 | 3.0 | 4.0 | 0.07 | 0.25 | 0.24 | 95 | 1011.0 |
| 20260903010106 | 56 | 332 | 2.0 | 4.0 | 0.08 | 0.24 | 0.23 | 95 | 1011.0 |
| 20260903004532 | 56 | 322 | 2.0 | 4.0 | 0.09 | 0.23 | 0.19 | 95 | 1011.1 |
| 20260903000035 | 57 | 316 | 3.0 | 5.0 | 0.05 | 0.16 | 0.14 | 94 | 1011.0 |
| 20260902234535 | 57 | 311 | 5.0 | 8.0 | 0.04 | 0.14 | 0.13 | 93 | 1011.0 |
| 20260902233107 | 57 | 324 | 2.0 | 4.0 | 0.04 | 0.13 | 0.11 | 93 | 1011.0 |
| 20260902231530 | 58 | 311 | 4.0 | 6.0 | 0.02 | 0.11 | 0.11 | 93 | 1011.2 |
| 20260902230110 | 58 | 326 | 3.0 | 6.0 | 0.03 | 0.11 | 0.10 | 93 | 1011.3 |
| 20260902224643 | 58 | 337 | 3.0 | 7.0 | 0.02 | 0.10 | 0.09 | 93 | 1011.2 |
| 20260902223035 | 57 | 341 | 3.0 | 5.0 | 0.02 | 0.09 | 0.09 | 93 | 1011.2 |
| 20260902221534 | 57 | 338 | 2.0 | 5.0 | 0.04 | 0.09 | 0.08 | 93 | 1011.2 |
| 20260902220034 | 57 | 320 | 2.0 | 5.0 | 0.04 | 0.08 | 0.08 | 92 | 1011.0 |
| 20260902214538 | 57 | 315 | 4.0 | 7.0 | 0.05 | 0.08 | 0.07 | 91 | 1010.9 |
| 20260902213037 | 58 | 309 | 4.0 | 7.0 | 0.05 | 0.07 | 0.05 | 90 | 1010.9 |
| 20260902210141 | 58 | 324 | 4.0 | 6.0 | 0.04 | 0.04 | 0.03 | 87 | 1010.9 |
| 20260902204529 | 59 | 342 | 3.0 | 5.0 | 0.03 | 0.03 | 0.02 | 86 | 1010.9 |
| 20260902203031 | 59 | 340 | 1.0 | 6.0 | 0.02 | 0.02 | 0.01 | 84 | 1010.9 |
| 20260902201606 | 59 | 349 | 0.0 | 4.0 | 0.01 | 0.01 | 0.00 | 83 | 1011.2 |
| 20260902200034 | 59 | 347 | 2.0 | 5.0 | 0.00 | 0.00 | 0.00 | 82 | 1011.1 |
| 20260902194535 | 60 | 341 | 2.0 | 4.0 | 0.00 | 0.00 | 0.00 | 80 | 1011.1 |
| 20260902193031 | 60 | 332 | 1.0 | 4.0 | 0.00 | 0.00 | 0.00 | 78 | 1011.1 |
| 20260902191642 | 61 | 288 | 1.0 | 5.0 | 0.00 | 0.00 | 0.00 | 74 | 1011.1 |
| 20260902190034 | 62 | 313 | 1.0 | 4.0 | 0.00 | 0.00 | 0.00 | 71 | 1011.0 |
| 20260902184530 | 62 | 353 | 3.0 | 5.0 | 0.00 | 0.00 | 0.00 | 70 | 1010.9 |
| 20260902180035 | 61 | 335 | 5.0 | 10.0 | 0.00 | 0.00 | 0.00 | 71 | 1010.9 |
| 20260902174533 | 61 | 337 | 4.0 | 9.0 | 0.00 | 0.00 | 0.00 | 71 | 1010.9 |
| 20260902173031 | 62 | 348 | 4.0 | 8.0 | 0.00 | 0.00 | 0.00 | 70 | 1011.0 |
| 20260902171534 | 62 | 341 | 5.0 | 9.0 | 0.00 | 0.00 | 0.00 | 72 | 1011.1 |
| 20260902170035 | 60 | 337 | 1.0 | 9.0 | 0.00 | 0.00 | 0.00 | 76 | 1011.5 |
| 20260902164609 | 59 | 284 | 0.0 | 3.0 | 0.00 | 0.00 | 0.00 | 77 | 1011.6 |
| 20260902163106 | 59 | 247 | 0.0 | 1.0 | 0.00 | 0.00 | 0.00 | 78 | 1011.8 |
| 20260902154650 | 56 | 73 | 1.0 | 3.0 | 0.00 | 0.00 | 0.00 | 84 | 1012.3 |
| 20260902153034 | 55 | 289 | 1.0 | 3.0 | 0.00 | 0.00 | 0.00 | 86 | 1012.3 |
| 20260902151532 | 54 | 112 | 1.0 | 2.0 | 0.00 | 0.00 | 0.00 | 87 | 1012.5 |
| 20260902144536 | 53 | 210 | 0.0 | 2.0 | 0.00 | 0.00 | 0.00 | 89 | 1012.7 |
| 20260902143034 | 52 | 247 | 0.0 | 2.0 | 0.00 | 0.00 | 0.00 | 89 | 1012.8 |
| 20260902141536 | 51 | 113 | 0.0 | 2.0 | 0.00 | 0.00 | 0.00 | 90 | 1012.8 |
| 20260902134534 | 50 | 105 | 0.0 | 3.0 | 0.00 | 0.00 | 0.00 | 88 | 1012.8 |
| 20260902133107 | 50 | 145 | 1.0 | 5.0 | 0.00 | 0.00 | 0.00 | 88 | 1012.9 |
| 20260902130108 | 48 | 259 | 2.0 | 5.0 | 0.00 | 0.00 | 0.00 | 87 | 1012.9 |